Вернуться в каталог

STARLINK-34658

АктивенСвязьVLEO
NORAD 64802·PAYLOAD·🇺🇸 United States

Запущен Jul 16, 2025 с Vandenberg Space Force Base

Loading…

Ближайшие Пролёты (ближайшие 24 часа)

TLE

СвежийSource: CelesTrak SupGP

Эпоха: Sep 14, 2026, 21:28 UTC

1 64802C 25150N   26257.89493056 -.00031600  00000+0 -26488-2 0  2577
2 64802  70.0028  17.5562 0003444 272.8827  96.6477 14.98336953    17

Отслеживайте STARLINK-34658 в реальном времени с AllMySat

Download on the App Store